CAPE
0 0 0 0 0 0 0 0 0 31 152 296 257 277 137 64 4 0 0 0 0 0 0 0 0 0 0 0 0 0 137 208 257 326 413 411 371 345 650 476 537 678 804 676
0 0 0 0 0 0 0 0 0 54 271 323 318 317 354 292 56 7 0 0 0 0 0 0 0 0 0 0 0 0 20 202 421 394 467 365 502 397 632 575 567 951 929 672
0 0 0 0 0 0 0 0 0 0 285 380 382 345 416 235 152 129 43 6 0 0 0 0 0 0 0 0 0 0 0 112 350 556 473 454 112 251 374 401 316 591 857 634
0 0 0 0 0 0 0 0 0 7 15 1 334 19 142 300 145 108 305 80 36 10 0 0 0 0 0 0 0 0 0 84 304 539 576 571 0 8 252 386 273 290 550 546
0 0 0 0 0 0 0 0 0 0 0 0 198 164 0 126 362 248 193 290 270 50 26 35 14 0 0 0 0 0 47 234 500 571 613 352 0 0 181 352 289 160 88 267
0 0 0 0 0 0 0 0 0 0 0 0 0 52 0 36 186 196 254 291 311 213 169 106 78 30 1 0 2 30 166 300 543 591 541 377 4 0 61 199 216 104 32 0
0 0 0 0 0 0 0 0 0 0 0 0 0 31 0 19 88 71 111 80 53 34 297 211 158 105 25 31 124 183 331 396 488 501 480 429 107 7 108 180 218 167 0 0
0 0 0 0 0 0 0 0 0 0 0 0 0 0 7 0 67 31 150 1257 1002 360 194 335 229 162 114 116 191 292 384 415 459 465 369 345 236 120 292 283 327 219 26 0
0 0 0 0 0 0 0 0 0 0 0 0 0 1 11 215 1110 1148 817 552 698 898 618 534 338 206 181 217 216 367 388 391 446 435 378 358 281 223 345 376 413 359 73 1
0 0 0 0 0 0 0 0 0 0 0 5 2 20 41 220 772 630 487 535 561 659 784 595 485 313 314 333 300 492 530 426 426 485 458 421 397 334 496 513 508 534 303 176
0 0 0 0 0 0 0 0 0 0 0 0 0 56 1 550 849 686 684 580 467 564 567 654 539 469 505 529 588 478 654 556 448 451 444 482 541 670 768 769 779 606 533 529
0 0 0 0 0 0 0 0 0 0 0 0 0 99 92 657 960 971 784 839 722 853 787 660 607 555 555 279 10 125 647 631 547 501 480 472 515 731 870 1018 1046 1134 978 783
0 0 0 0 0 0 0 0 0 0 0 0 0 186 223 772 960 954 841 888 728 918 838 644 529 460 497 4 6 118 720 693 626 792 741 686 620 697 757 813 915 1086 1172 1229
0 0 0 0 0 0 0 0 0 0 0 0 0 0 0 0 326 169 967 938 783 783 809 725 528 309 159 45 105 209 192 412 973 972 908 864 970 1096 1152 1194 1221 1331 1450 1406
0 0 0 0 0 0 0 0 0 0 0 0 0 0 0 0 0 27 945 740 893 830 708 554 600 453 193 114 63 158 182 102 144 489 1213 1138 1217 1213 1461 1544 1605 1545 1551 1663
0 0 0 0 0 0 0 0 0 0 0 0 0 6 379 480 485 391 989 1239 612 437 476 326 246 264 249 131 112 78 189 367 289 242 189 439 1374 1356 578 504 1144 1960 1827 1896
0 0 0 0 0 0 0 0 0 0 0 0 0 235 87 647 1056 1028 1035 1367 957 906 1277 1031 818 330 321 428 526 532 608 470 455 385 393 393 644 372 41 0 0 134 273 859
0 0 0 0 0 0 0 0 0 0 0 0 4 0 0 0 6 135 265 429 483 284 208 436 413 620 920 745 353 126 254 319 576 675 751 738 365 176 68 0 2 29 0 4
0 0 0 0 0 0 0 0 0 0 0 0 0 0 0 0 0 0 0 3 0 16 29 236 505 703 804 692 63 0 9 353 524 424 544 834 469 138 57 2 0 0 6 16
0 0 0 0 0 0 0 0 0 0 0 0 0 0 0 0 0 0 0 0 0 0 0 0 195 193 207 402 129 5 4 57 54 130 262 303 276 0 0 0 0 0 0 0
0 0 0 0 0 0 0 0 0 0 0 0 0 0 0 0 0 0 0 0 0 0 0 0 0 0 0 0 0 0 0 0 0 0 3 497 195 251 6 0 0 0 4 0
0 0 0 0 0 0 0 0 0 0 0 0 0 0 0 0 0 0 0 0 0 0 0 0 0 0 0 0 0 0 0 0 0 0 0 2 1032 394 155 0 6 19 17 0
0 0 0 0 0 0 0 0 0 0 0 0 0 0 0 0 0 0 0 0 0 0 0 0 0 0 0 0 0 0 0 0 0 0 4 1 169 430 626 457 19 144 526 911
0 0 0 0 0 0 0 0 0 0 0 0 0 0 0 0 0 0 0 0 0 0 0 0 0 0 0 0 0 0 0 0 0 0 0 0 0 2 0 62 300 884 941 1085
0 0 0 0 0 0 0 0 0 0 0 0 0 0 0 0 0 0 0 0 0 0 0 0 0 0 0 0 0 0 0 0 0 0 0 0 0 0 0 0 0 0 86 747
0 0 0 0 0 0 0 0 0 0 0 0 0 0 0 0 0 0 0 0 0 0 0 0 0 0 0 0 0 0 0 0 0 0 0 0 0 0 0 0 7 37 36 63
CIN
-0 -0 -0 -0 -0 -0 -0 -0 -0 -124 -178 -143 -139 -100 -268 -559 -670 -0 -0 -0 -0 -0 -0 -0 -0 -0 -0 -0 -0 -1 -197 -150 -120 -105 -96 -86 -90 -106 -68 -79 -71 -54 -44 -42
-0 -0 -0 -0 -0 -0 -0 -0 -0 -176 -246 -165 -174 -113 -192 -474 -531 -587 -0 -0 -0 -0 -0 -0 -0 -0 -0 -0 -0 -0 -303 -168 -136 -122 -110 -127 -108 -94 -78 -82 -75 -45 -46 -54
-0 -0 -0 -0 -0 -0 -0 -0 -0 -0 -227 -245 -213 -175 -194 -353 -498 -498 -589 -521 -0 -0 -0 -0 -0 -0 -0 -0 -0 -0 -0 -228 -143 -125 -132 -137 -177 -139 -113 -104 -102 -77 -59 -77
-0 -0 -0 -0 -0 -0 -0 -0 -0 -88 -30 -4 -188 -50 -144 -229 -326 -461 -486 -539 -547 -487 -0 -0 -0 -0 -0 -0 -0 -0 -0 -287 -197 -164 -131 -122 -0 -279 -122 -98 -89 -94 -85 -77
-0 -0 -0 -0 -0 -0 -0 -0 -0 -0 -0 -0 -142 -132 -0 -307 -190 -234 -398 -412 -437 -511 -513 -499 -575 -37 -0 -0 -0 -0 -367 -261 -204 -186 -151 -147 -0 -0 -116 -102 -103 -110 -141 -93
-0 -0 -0 -0 -0 -0 -0 -0 -0 -0 -0 -0 -0 -132 -0 -149 -105 -114 -186 -286 -344 -375 -447 -454 -471 -498 -148 -0 -106 -397 -311 -266 -217 -199 -173 -155 -30 -0 -128 -119 -109 -133 -171 -0
-0 -0 -0 -0 -0 -0 -0 -0 -0 -0 -0 -0 -0 -168 -34 -171 -188 -197 -225 -277 -274 -322 -317 -439 -420 -437 -413 -452 -383 -381 -316 -263 -240 -220 -184 -167 -210 -158 -142 -109 -106 -121 -78 -0
-0 -0 -0 -0 -0 -0 -0 -0 -0 -0 -0 -0 -0 -0 -104 -0 -277 -335 -281 -154 -130 -139 -231 -347 -394 -422 -397 -393 -382 -373 -341 -280 -292 -258 -226 -203 -204 -248 -190 -135 -104 -128 -175 -0
-0 -0 -0 -0 -0 -0 -0 -0 -0 -0 -0 -0 -0 -8 -116 -154 -114 -130 -132 -177 -131 -143 -157 -257 -345 -395 -436 -403 -383 -354 -338 -279 -280 -246 -269 -246 -224 -243 -224 -193 -143 -100 -184 -9
-0 -0 -0 -0 -0 -0 -0 -0 -0 -0 -0 -23 -55 -54 -37 -64 -77 -101 -93 -114 -171 -179 -203 -258 -321 -409 -525 -457 -397 -276 -278 -239 -252 -237 -239 -228 -220 -213 -205 -182 -162 -135 -140 -141
-0 -0 -0 -0 -0 -0 -0 -0 -0 -0 -0 -0 -3 -29 -38 -73 -79 -48 -80 -105 -162 -207 -237 -303 -420 -507 -461 -383 -287 -218 -297 -250 -245 -249 -237 -193 -194 -175 -161 -141 -125 -147 -129 -113
-0 -0 -0 -0 -0 -0 -0 -0 -0 -0 -0 -0 -0 -40 -140 -80 -95 -67 -78 -154 -234 -278 -332 -399 -374 -388 -325 -207 -334 -307 -292 -251 -259 -243 -211 -207 -191 -182 -165 -142 -127 -129 -115 -113
-0 -0 -0 -0 -0 -0 -0 -0 -0 -0 -0 -0 -0 -43 -115 -76 -72 -96 -101 -150 -205 -226 -277 -313 -318 -282 -211 -85 -106 -384 -222 -230 -250 -239 -202 -203 -203 -196 -182 -180 -170 -156 -136 -102
-0 -0 -0 -0 -0 -0 -0 -0 -0 -0 -0 -0 -0 -0 -0 -0 -84 -207 -156 -142 -170 -215 -227 -270 -282 -327 -353 -426 -415 -360 -303 -284 -104 -139 -116 -186 -190 -187 -173 -153 -147 -144 -121 -105
-0 -0 -0 -0 -0 -0 -0 -0 -0 -0 -0 -0 -0 -0 -0 -0 -0 -214 -143 -181 -208 -223 -238 -269 -206 -227 -380 -414 -494 -480 -530 -563 -452 -191 -97 -131 -143 -147 -171 -168 -154 -126 -123 -108
-0 -0 -0 -0 -0 -0 -0 -0 -0 -0 -0 -0 -0 -154 -339 -376 -399 -235 -152 -120 -212 -270 -254 -291 -335 -356 -409 -499 -443 -432 -395 -407 -511 -456 -444 -314 -13 -15 -62 -129 -103 -92 -105 -88
-0 -0 -0 -0 -0 -0 -0 -0 -0 -0 -0 -0 -0 -193 -363 -252 -199 -255 -239 -200 -215 -223 -173 -198 -251 -324 -375 -395 -398 -314 -323 -408 -405 -400 -378 -425 -332 -336 -136 -0 -0 -271 -212 -77
-0 -0 -0 -0 -0 -0 -0 -0 -0 -0 -0 -0 -292 -0 -0 -45 -180 -357 -404 -336 -316 -331 -350 -328 -339 -321 -308 -369 -405 -474 -534 -405 -420 -367 -332 -363 -425 -476 -467 -0 -99 -62 -0 -70
-0 -0 -0 -0 -0 -0 -0 -0 -0 -0 -50 -0 -0 -0 -0 -0 -0 -0 -0 -86 -0 -375 -434 -379 -349 -336 -316 -306 -459 -0 -441 -436 -429 -370 -317 -297 -299 -421 -497 -87 -0 -0 -127 -192
-0 -0 -0 -0 -0 -0 -0 -0 -0 -0 -0 -0 -0 -0 -0 -0 -0 -0 -0 -0 -0 -0 -0 -0 -336 -350 -340 -262 -325 -387 -350 -279 -251 -318 -255 -279 -304 -33 -0 -0 -0 -0 -0 -0
-0 -0 -0 -0 -0 -0 -0 -0 -0 -0 -0 -0 -0 -0 -0 -0 -0 -0 -0 -0 -0 -0 -0 -0 -0 -0 -0 -0 -0 -0 -0 -0 -0 -0 -71 -184 -266 -224 -171 -0 -0 -0 -142 -0
-0 -0 -0 -0 -0 -0 -0 -0 -0 -0 -0 -0 -0 -0 -0 -0 -0 -0 -0 -0 -0 -0 -0 -0 -0 -0 -0 -0 -0 -0 -0 -0 -0 -0 -0 -55 -66 -144 -206 -0 -345 -351 -363 -0
-0 -0 -0 -0 -0 -0 -0 -0 -0 -0 -0 -0 -0 -0 -0 -0 -0 -0 -0 -0 -0 -0 -0 -0 -0 -0 -0 -0 -0 -0 -0 -0 -0 -0 -304 -137 -146 -58 -70 -85 -188 -179 -115 -82
-0 -0 -0 -0 -0 -0 -0 -0 -0 -0 -0 -0 -0 -0 -0 -0 -0 -0 -0 -0 -0 -0 -0 -0 -0 -0 -0 -0 -0 -0 -0 -0 -0 -0 -0 -0 -0 -407 -0 -193 -77 -65 -71 -76
-0 -0 -0 -0 -0 -0 -0 -0 -0 -0 -0 -0 -0 -0 -0 -0 -0 -0 -0 -0 -0 -0 -0 -0 -0 -0 -0 -0 -0 -0 -0 -0 -0 -0 -0 -0 -0 -0 -0 -0 -0 -0 -109 -62
-0 -0 -0 -0 -0 -0 -0 -0 -0 -0 -0 -0 -0 -0 -0 -0 -0 -0 -0 -0 -0 -0 -0 -0 -0 -0 -0 -0 -0 -0 -0 -0 -0 -0 -0 -0 -0 -0 -0 -0 -246 -232 -220 -156
Wind_Speed
21 21 25 14 7 11 8 6 5 14 11 14 14 15 20 21 20 22 22 25 27 28 31 32 32 31 30 29 25 21 17 15 12 10 8 5 6 3 3 5 5 3 6 13
18 24 24 26 18 8 15 10 14 17 14 14 17 17 19 16 19 21 21 23 25 25 27 30 31 30 30 28 26 23 23 20 19 16 10 3 7 2 8 9 8 1 5 4
15 20 16 24 24 15 15 12 16 14 10 15 10 19 19 19 19 21 22 21 24 25 25 27 29 30 28 28 27 26 25 21 20 17 10 1 2 16 11 11 6 1 11 8
21 21 20 21 16 16 18 11 13 9 9 12 10 19 20 20 20 18 20 23 23 25 25 26 27 29 30 27 26 25 24 23 20 15 14 15 17 17 17 9 5 7 5 4
10 20 23 22 21 17 18 20 13 5 6 11 6 17 16 7 20 23 24 24 21 23 24 25 27 27 28 26 26 24 23 22 21 22 20 19 20 19 8 9 11 9 2 3
13 15 12 8 18 18 19 18 16 15 8 13 5 6 20 8 16 21 28 24 16 15 21 25 27 24 24 22 20 20 21 22 22 22 21 22 22 20 20 17 16 15 12 10
9 9 13 9 16 19 16 16 15 16 15 13 14 8 15 13 15 20 21 23 22 16 18 19 21 20 18 15 16 17 19 21 22 22 21 22 22 21 21 20 19 17 14 15
12 17 16 18 12 15 14 14 14 15 15 14 12 13 13 13 9 15 9 16 19 11 9 14 17 15 14 13 13 16 21 23 21 21 22 22 22 22 22 21 19 17 14 14
16 16 16 19 10 13 14 16 14 14 16 13 13 11 12 13 13 12 14 19 22 24 8 5 9 13 15 13 14 17 21 22 22 23 20 19 21 23 21 20 18 15 15 14
16 16 16 20 18 18 14 15 16 15 15 13 12 11 14 8 10 13 16 20 19 23 17 10 6 8 10 6 13 23 26 22 22 24 20 18 19 22 21 17 15 15 16 16
19 18 19 17 20 17 16 18 17 14 13 12 11 10 8 9 10 13 15 18 18 18 18 16 14 10 9 7 13 13 39 32 21 18 18 15 15 17 18 18 16 14 14 16
20 20 14 9 12 16 18 17 17 16 14 14 13 13 10 9 10 12 13 15 15 16 16 17 15 13 14 18 13 22 23 39 16 13 12 14 11 13 16 20 22 13 14 14
16 20 17 12 9 13 17 20 18 16 15 14 15 10 11 11 8 8 11 12 13 15 17 16 13 11 11 5 9 23 7 42 31 22 16 15 14 16 14 20 19 12 16 15
18 17 13 12 11 14 20 23 21 18 16 13 10 7 14 9 3 8 7 9 11 12 14 15 14 12 12 13 12 11 10 26 28 34 42 29 21 17 16 14 13 14 13 15
17 16 14 13 14 17 22 27 27 24 23 7 14 8 12 18 16 4 4 7 8 9 12 14 13 12 14 12 11 13 17 20 18 10 19 26 35 40 35 17 17 23 19 15
19 13 15 18 18 23 32 34 31 19 15 19 12 17 18 17 13 11 10 6 10 11 11 10 12 15 15 12 9 11 5 18 27 27 29 36 26 37 36 38 41 39 27 30
21 15 18 23 26 29 29 16 17 17 14 5 11 11 14 16 16 16 14 13 11 12 16 16 19 19 16 14 12 11 11 15 26 27 28 24 25 24 28 32 36 42 35 34
14 17 18 24 24 29 18 25 14 12 13 10 11 11 13 16 16 17 17 17 15 14 18 19 18 20 14 10 11 17 15 8 19 16 21 21 19 18 22 28 42 50 35 48
9 12 18 20 20 25 21 13 11 12 11 9 10 10 12 15 17 19 20 19 17 12 16 18 18 18 19 16 14 18 19 22 18 16 18 12 10 19 21 25 26 19 26 43
17 13 8 13 21 25 17 13 8 9 10 6 7 5 6 13 18 18 20 19 18 16 15 16 15 16 16 16 18 21 20 21 28 30 30 26 20 19 24 11 3 20 17 30
22 19 9 11 18 24 14 12 9 16 16 2 5 8 9 14 15 13 15 18 19 20 20 19 17 19 19 20 22 23 24 22 28 26 28 26 23 21 17 14 12 12 21 24
21 23 21 17 18 24 11 16 15 14 5 4 4 7 11 11 12 13 16 18 19 20 21 21 21 22 24 22 24 26 28 31 30 26 25 26 25 21 20 16 14 14 16 16
23 18 23 15 21 24 18 19 14 4 3 4 6 8 10 11 14 16 18 18 18 19 20 20 21 23 25 26 25 27 30 33 35 34 29 24 19 19 18 13 11 11 12 15
21 17 19 20 20 19 14 11 8 7 6 6 8 8 10 13 15 18 19 18 19 18 19 20 22 24 27 29 30 31 34 36 36 38 37 29 24 26 28 23 22 20 19 20
19 18 18 20 17 18 17 14 7 6 7 9 11 11 13 15 18 19 18 17 19 20 21 22 25 28 28 30 35 37 39 38 40 40 39 37 33 29 28 29 32 33 31 29
21 21 21 23 15 20 17 8 6 6 8 8 9 13 16 16 18 17 18 20 20 21 23 25 27 29 31 33 34 34 37 36 40 41 40 39 40 40 35 33 37 36 39 41
Wind_Direction
271 277 249 196 40 206 175 94 90 42 91 116 129 156 137 144 152 152 146 153 155 166 174 177 179 180 179 179 171 167 166 165 162 157 154 149 154 130 1 336 344 109 131 146
274 240 231 283 341 261 357 27 5 353 83 150 152 171 173 146 166 165 156 161 165 162 171 180 183 182 184 181 177 174 175 171 170 167 162 158 155 280 310 309 317 61 143 336
284 191 277 258 272 341 357 8 345 6 14 318 80 213 200 190 173 173 175 169 173 173 169 174 182 187 184 183 180 179 180 178 177 171 157 198 325 283 296 301 312 323 158 158
240 235 296 295 342 343 330 22 0 34 30 4 123 298 202 185 187 171 164 173 175 177 178 179 180 186 188 185 183 184 181 180 178 171 169 169 172 173 177 165 151 151 151 160
188 282 286 298 292 329 322 313 3 71 24 4 69 325 340 312 184 184 173 179 174 180 185 186 188 188 192 186 186 183 183 181 177 176 176 176 181 182 163 163 169 172 245 258
198 305 5 110 293 308 272 305 349 9 29 331 22 93 327 70 154 187 193 199 172 176 189 192 194 188 188 185 181 180 181 183 179 179 180 181 184 181 182 175 176 175 171 168
221 253 273 205 268 315 299 323 346 350 352 349 4 42 340 299 144 172 222 245 227 194 193 190 188 188 186 182 181 180 182 183 182 183 182 184 185 182 183 182 178 179 172 175
38 351 302 295 79 77 272 335 16 360 6 12 11 0 348 327 316 247 331 307 334 25 177 184 189 188 189 188 187 185 186 187 184 184 186 186 185 184 183 181 179 176 172 170
8 339 278 313 196 56 41 352 316 14 11 32 16 360 354 27 23 27 21 6 3 356 61 143 179 185 190 199 193 188 187 188 187 187 187 188 187 187 185 181 180 176 174 169
17 351 349 328 337 4 12 27 353 350 0 8 30 61 120 48 31 22 358 1 26 12 34 59 107 157 168 218 269 269 203 189 188 188 188 191 190 190 189 184 182 179 179 176
1 351 325 348 340 359 347 350 6 18 14 12 357 8 45 63 44 33 40 18 31 54 61 62 67 82 121 92 284 275 224 199 191 191 191 194 199 195 193 193 193 187 184 183
350 353 352 357 35 0 1 358 2 350 355 3 2 345 36 70 63 45 44 42 43 42 47 45 54 80 119 136 123 191 198 213 199 212 215 202 219 213 203 201 201 201 198 194
12 356 353 355 348 353 335 327 349 340 342 347 357 16 360 359 19 34 35 48 55 56 53 51 54 79 113 104 43 255 186 221 260 264 255 258 257 261 222 207 207 219 210 211
358 10 16 4 357 349 317 312 321 337 341 348 358 27 350 5 191 9 34 61 72 65 64 46 46 37 12 355 13 9 331 275 272 265 257 265 263 259 258 243 235 257 245 221
358 3 11 357 348 335 319 303 298 310 317 350 337 346 342 332 340 16 47 53 57 65 48 49 58 40 17 18 3 360 322 303 306 275 246 272 271 266 268 262 255 271 271 258
332 355 352 333 336 324 292 287 294 320 343 332 353 341 342 347 8 6 5 34 24 25 36 61 49 23 25 29 4 352 358 322 303 301 294 282 286 279 277 279 271 265 266 265
316 334 333 320 316 307 301 345 337 331 339 38 351 12 0 2 5 3 6 2 4 9 1 1 352 349 357 360 1 346 350 342 305 302 300 298 297 298 290 317 291 275 267 270
312 314 322 315 317 293 327 314 351 10 355 24 42 46 33 22 19 12 6 8 9 5 354 353 357 352 357 357 359 345 349 34 323 331 314 309 303 301 304 301 312 298 273 273
302 302 309 311 306 302 312 351 358 348 354 31 46 43 34 23 10 4 1 6 5 8 1 356 358 357 353 354 349 341 336 330 337 333 329 319 306 301 306 320 325 322 245 244
338 311 301 315 300 294 314 344 13 9 334 35 23 37 19 355 348 349 350 1 9 12 4 359 358 355 353 350 347 340 334 326 316 316 318 324 318 313 314 329 233 184 201 225
311 320 289 292 300 298 312 331 343 309 317 21 26 10 9 347 353 4 5 2 359 355 354 351 348 344 342 341 340 335 331 326 323 321 318 318 317 319 316 303 291 238 224 227
300 299 301 305 298 292 314 312 309 328 24 84 22 2 358 2 5 7 1 355 354 353 351 349 349 347 347 344 338 333 330 325 325 324 320 319 317 312 309 298 282 252 235 233
296 297 299 298 297 299 300 303 316 358 33 0 355 351 356 357 352 351 349 352 352 350 350 355 352 348 346 344 343 337 333 327 320 318 317 319 312 318 315 297 270 262 245 261
299 304 301 302 299 300 308 318 332 341 355 360 354 3 0 353 350 348 348 348 348 355 354 352 349 345 340 339 337 333 329 325 321 315 314 318 312 307 307 296 293 287 279 274
290 298 298 301 299 297 300 304 324 337 343 343 344 351 349 348 346 346 348 348 347 346 349 349 344 339 338 335 329 327 325 323 319 315 313 313 313 310 305 298 288 285 282 280
281 282 285 288 302 295 299 303 314 329 330 343 352 345 345 349 347 352 349 346 345 345 344 343 340 339 337 334 333 331 328 326 320 317 314 313 309 305 305 302 293 286 279 276